Home > Weather > Riesa > Past weeks

Flag for Germany Past Weather in Riesa, Saxony, Germany — Yesterday and Last 2 Weeks

Now
54 °F

Broken clouds.


Feels Like: 52 °F
Forecast: 52 / 70 °F
Wind: 7 mph from Northwest

Location: Dresden-Klotzsche

Current Time: May 25, 2016 at 11:26:53 AM

Latest Report: May 25, 2016 at 10:50 AM


Visibility: 4 mi

Pressure: 29.98 "Hg

Humidity: 94%

Dew Point: 52 °F

Location of RiesaLocation

Past Weather in Riesa — Graph

°F

Riesa Temperature Yesterday

Maximum temperature yesterday: 64 °F (at 11:50 AM)
Minimum temperature yesterday: 52 °F (at 10:50 PM)
Average temperature yesterday: 58 °F

High & Low Weather Summary for the Past Weeks

 TemperatureHumidityPressure
High82 °F (May 22, 3:50 PM)100% (May 13, 2:50 AM)30.09 "Hg (May 13, 2:50 AM)
Low39 °F (May 15, 4:50 AM)23% (May 22, 3:50 PM)29.45 "Hg (May 13, 3:20 PM)
Average58 °F65%29.85 "Hg
* Reported May 10 10:20 AM — May 25 10:20 AM, Riesa, Weather by CustomWeather, © 2016

Note: Actual official high and low records may vary slightly from our data, if they occured in-between our weather recording intervals... More about our weather records

Advertising

Riesa Weather History for the Previous 24 Hours

Scroll right to see more
 ConditionsComfort  
Time TempWeatherWind HumidityBarometerVisibility
10:20 AM
Wed, May 25
52 °FFog.6 mph100%29.98 "Hg3 mi
9:50 AM52 °FDrizzle. Fog.6 mph100%29.98 "Hg2 mi
9:20 AM52 °FDrizzle. Fog.7 mph94%29.95 "Hg1 mi
8:50 AM52 °FDrizzle. Fog.7 mph94%29.95 "Hg1 mi
8:20 AM52 °FDrizzle. Fog.7 mph100%29.95 "Hg1 mi
7:50 AM52 °FDrizzle. Fog.8 mph94%29.95 "Hg1 mi
7:20 AM52 °FDrizzle. Fog.7 mph94%29.95 "Hg1 mi
6:50 AM52 °FDrizzle. Fog.6 mph94%29.95 "Hg1 mi
6:20 AM52 °FDrizzle. Fog.9 mph94%29.92 "Hg1 mi
5:50 AM52 °FDrizzle. Fog.6 mph94%29.92 "Hg2 mi
5:20 AM52 °FDrizzle. Fog.6 mph100%29.92 "Hg2 mi
4:50 AM52 °FFog.7 mph100%29.92 "Hg2 mi
4:20 AM52 °FFog.8 mph100%29.92 "Hg2 mi
3:50 AM52 °FFog.8 mph100%29.92 "Hg2 mi
3:20 AM52 °FFog.7 mph100%29.92 "Hg2 mi
2:50 AM52 °FFog.7 mph100%29.92 "Hg2 mi
2:20 AM52 °FDrizzle. Fog.7 mph100%29.92 "Hg2 mi
1:50 AM52 °FDrizzle. Fog.8 mph100%29.92 "Hg2 mi
1:20 AM52 °FDrizzle. Fog.7 mph100%29.92 "Hg2 mi
12:50 AM52 °FDrizzle. Fog.8 mph100%29.92 "Hg2 mi
12:20 AM52 °FDrizzle. Fog.7 mph100%29.92 "Hg2 mi
11:50 PM
Tue, May 24
52 °FDrizzle. Fog.6 mph100%29.92 "Hg1 mi
11:20 PM52 °FDrizzle. Fog.8 mph100%29.92 "Hg2 mi
10:50 PM52 °FFog.7 mph100%29.92 "Hg2 mi
10:20 PM54 °FFog.8 mph94%29.92 "Hg3 mi
9:50 PM54 °FFog.12 mph94%29.89 "Hg2 mi
9:20 PM54 °FFog.10 mph100%29.89 "Hg2 mi
8:50 PM54 °FFog.9 mph100%29.89 "Hg3 mi
8:20 PM55 °FFog.12 mph94%29.86 "Hg3 mi
7:50 PM55 °FLow clouds.13 mph100%29.86 "Hg4 mi
7:20 PM57 °FLow clouds.12 mph94%29.86 "HgN/A
6:50 PM59 °FLow clouds.10 mph88%29.86 "HgN/A
6:20 PM59 °FLow clouds.9 mph88%29.83 "HgN/A
5:50 PM61 °FPartly sunny.12 mph88%29.83 "HgN/A
5:20 PM61 °FBroken clouds.9 mph88%29.83 "HgN/A
4:50 PM63 °FBroken clouds.8 mph83%29.83 "HgN/A
4:20 PM61 °FPartly sunny.9 mph88%29.83 "HgN/A
3:50 PM61 °FPartly sunny.9 mph88%29.83 "HgN/A
3:20 PM61 °FPartly sunny.10 mph88%29.83 "HgN/A
2:50 PM61 °FBroken clouds.9 mph88%29.83 "HgN/A
2:20 PM63 °FBroken clouds.7 mph88%29.80 "HgN/A
1:50 PM63 °FPartly sunny.8 mph83%29.80 "HgN/A
1:20 PM63 °FPartly sunny.8 mph83%29.80 "HgN/A
12:50 PM64 °FBroken clouds.9 mph78%29.80 "HgN/A
12:20 PM63 °FPartly sunny.10 mph77%29.80 "HgN/A
11:50 AM64 °FPartly sunny.10 mph73%29.80 "HgN/A
11:20 AM63 °FBroken clouds.9 mph77%29.80 "HgN/A
Weather by CustomWeather, © 2016

See weather overviewHow to use our weather pages